Weather History for LIMH - January, 2013

Change the Weather History Date:

Sunday, January 6, 2013

  Actual Average Record
Temperature  
Mean Temperature 22 °F -  
Max Temperature 25 °F 17 °F 39 °F (1999)
Min Temperature 19 °F 6 °F -5 °F (1997)
Degree Days  
Heating Degree Days 43    
Moisture  
Dew Point 5 °F    
Average Humidity 48    
Maximum Humidity 66    
Minimum Humidity 9    
Precipitation  
Precipitation 0.00 in - - ()
Sea Level Pressure  
Sea Level Pressure 30.37 in    
Wind  
Wind Speed 36 mph ()    
Max Wind Speed 46 mph    
Max Gust Speed -    
Visibility 6.7 miles    
Events Snow    
Averages and records for this station are not official NWS values.
T = Trace of Precipitation, MM = Missing Value Source: Averaged Metar Reports

Daily Weather History Graph

Daily Weather History Graph

Search for Another Location

Airport or City:

Trip Planner

Search our weather history database for the weather conditions in past years. The results will help you decide how hot, cold, wet, or windy it might be!

Date:

Astronomy

Jan. 06, 2013 Rise Set
Actual Time 8:10 AM CET 4:59 PM CET
Civil Twilight 7:36 AM CET 5:34 PM CET
Nautical Twilight 6:58 AM CET 6:11 PM CET
Astronomical Twilight 6:22 AM CET 6:47 PM CET
Moon 1:57 AM CET (1/6) 12:23 PM CET (1/6)
Length of Visible Light 9h 57m
Length of Day
8h 49m
Waning Crescent, 36% of the Moon is Illuminated
Jan 6
Waning Crescent
Jan 11
New
Jan 19
First Quarter
Jan 27
Full
Feb 3
Last Quarter

Hourly Weather History & Observations

Time (CET) Temp. Windchill Dew Point Humidity Pressure Visibility Wind Dir Wind Speed Gust Speed Precip Events Conditions
1:00 AM 24 °F - 17 °F 66%  in 6 mi ENE 40.3 mph - -   Partly Cloudy
2:55 AM 23.0 °F 3.2 °F 10.4 °F 59% 30.36 in 6.2 mi ENE 40.3 mph - N/A   Partly Cloudy
3:55 AM 21.2 °F 1.4 °F 8.6 °F 58% 30.39 in 6.2 mi ENE 36.8 mph - N/A   Scattered Clouds
4:00 AM 22 °F - 8 °F 40%  in 6 mi ENE 36.8 mph - -   Partly Cloudy
4:55 AM 21.2 °F 1.2 °F 8.6 °F 58% 30.39 in 6.2 mi ENE 38.0 mph - N/A   Scattered Clouds
5:55 AM 21.2 °F 1.4 °F 8.6 °F 58% 30.39 in 6.2 mi NE 36.8 mph - N/A   Scattered Clouds
6:55 AM 21.2 °F 0.1 °F 10.4 °F 63% 30.39 in 6.2 mi ENE 43.7 mph - N/A   Partly Cloudy
7:00 AM 22 °F - 10 °F 46%  in 6 mi ENE 43.7 mph - -   Scattered Clouds
7:55 AM 23.0 °F 5.1 °F 8.6 °F 54% 30.42 in 6.2 mi ENE 31.1 mph - N/A   Scattered Clouds
8:55 AM 23.0 °F 4.6 °F 6.8 °F 50% 30.42 in 6.2 mi NE 33.4 mph - N/A   Scattered Clouds
9:55 AM 23.0 °F 4.4 °F 5.0 °F 46% 30.42 in 6.2 mi NE 34.5 mph - N/A   Scattered Clouds
10:00 AM 23 °F - 5 °F 32%  in 25 mi NE 34.5 mph - -   Partly Cloudy
10:55 AM 24.8 °F 6.6 °F 6.8 °F 46% 30.45 in 6.2 mi NE 35.7 mph - N/A   Scattered Clouds
11:55 AM 23.0 °F 3.9 °F 6.8 °F 50% 30.42 in 6.2 mi ENE 36.8 mph - N/A   Scattered Clouds
12:55 PM 23.0 °F 2.8 °F 6.8 °F 50% 30.39 in 6.2 mi NE 42.6 mph - N/A   Scattered Clouds
1:00 PM 23 °F - 7 °F 36%  in 19 mi NE 42.6 mph - -   Partly Cloudy
1:55 PM 23.0 °F 2.2 °F 6.8 °F 50% 30.36 in 6.2 mi NE 46.0 mph - N/A Snow Low Drifting Snow
2:55 PM 23.0 °F 2.2 °F 10.4 °F 59% 30.33 in 6.2 mi NE 46.0 mph - N/A Snow Low Drifting Snow
3:55 PM 21.2 °F -0.3 °F 8.6 °F 58% 30.33 in 6.2 mi NE 46.0 mph - N/A Snow Low Drifting Snow
4:55 PM 21.2 °F -0.3 °F 8.6 °F 58% 30.33 in 6.2 mi NE 46.0 mph - N/A Snow Low Drifting Snow
5:55 PM 21.2 °F 0.1 °F 10.4 °F 63% 30.33 in 6.2 mi NE 43.7 mph - N/A Snow Low Drifting Snow
6:55 PM 21.2 °F -0.1 °F 10.4 °F 63% 30.33 in - ENE 44.9 mph - N/A   Clear
7:00 PM 20 °F - 10 °F 51%  in 6 mi ENE 44.9 mph - -   Partly Cloudy
7:55 PM 21.2 °F 0.3 °F 1.4 °F 42% 30.33 in - ENE 42.6 mph - N/A   Clear
8:55 PM 21.2 °F 0.9 °F -4.0 °F 33% 30.30 in - ENE 39.1 mph - N/A   Clear
9:55 PM 21.2 °F 0.7 °F -13.0 °F 22% 30.33 in - NE 40.3 mph - N/A   Clear
10:00 PM 21 °F - -13 °F 9%  in 6 mi NE 40.3 mph - -  
10:55 PM 21.2 °F 0.1 °F -18.4 °F 17% 30.33 in - NE 43.7 mph - N/A   Clear